Location: Aix-en-Ergny
(50.5839°N, 1.9996°E)
Time: 04:30:59
(UTC+00:00)

NOSS 3-4 (C) - Pass Details

Date: 23 October 2019
Orbit: 908 x 1304 km, 63.4° (Epoch: 10 November)

Event Time Altitude Azimuth Distance (km) Brightness Sun altitude
Exits shadow 03:00:05 44° 126° (SE) 1,273 4.2 -32.9°
Maximum altitude 03:00:16 44° 121° (ESE) 1,272 4.2 -32.9°
Drops below altitude 10° 03:06:15 10° 51° (NE) 2,757 6.7 -32.0°
Sets 03:09:02 0° 46° (NE) 3,764 7.5 -31.6°
